Regional Weather Roundup
Issued by NWS Northern Indiana

Home | Current Version | Previous Version | Text Only | Print | Product List | Glossary Off
Versions: 1 2 3 4 5 6 7 8 9 10 11 12 13 14 15 16 17 18 19 20 21 22 23 24 25 26 27 28 29 30 31 32 33 34 35 36 37 38 39 40 41 42 43 44 45 46 47 48 49 50

000
ASUS43 KIWX 171510
RWRIWX

KIWX WEATHER ROUNDUP
NATIONAL WEATHER SERVICE NORTHERN INDIANA
1100 AM EDT WED SEP 17 2014

NOTE: "FAIR" INDICATES FEW OR NO CLOUDS BELOW 12,000 FEET WITH NO
SIGNIFICANT WEATHER AND/OR OBSTRUCTIONS TO VISIBILITY.

* THESE STATIONS ARE NOT UNDER NWS QUALITY CONTROL. THEY ALSO MAY NOT
  REPORT WEATHER SUCH AS PRECIPITATION OR FOG.

INZ001>027-171600-
NORTHERN INDIANA

CITY           SKY/WX    TMP DP  RH WIND       PRES   REMARKS
GARY*          MOSUNNY   61  48  63 CALM      30.05S
VALPARAISO     SUNNY     59  50  72 CALM      30.05S
MICHIGAN CITY* SUNNY     61  48  63 S6        30.04F
LAPORTE*       SUNNY     58  49  72 SW3       30.05S
KNOX*          SUNNY     58  50  75 CALM      30.03F
SOUTH BEND     SUNNY     61  48  62 S6        30.05F
ELKHART*       SUNNY     59  46  63 S5        30.05F
GOSHEN         SUNNY     62  49  62 SE3       30.05F
MONTICELLO*    SUNNY     58  53  84 CALM      30.04S
LOGANSPORT*    SUNNY     59  52  77 CALM      30.06S
ROCHESTER*     SUNNY     63  52  67 CALM      30.05F
WARSAW*        PTSUNNY   57  50  77 CALM      30.05F
ANGOLA*        SUNNY     61  46  59 S5        30.05F
FORT WAYNE     PTSUNNY   57  53  86 CALM      30.07F
HUNTINGTON*    CLOUDY    56  54  95 CALM      30.05F
PERU/GRISSOM   SUNNY     59  55  86 CALM      30.05F
MARION*        SUNNY     56  54  92 W3        30.06F

$$
INZ028>050-171600-
CENTRAL INDIANA

CITY           SKY/WX    TMP DP  RH WIND       PRES   REMARKS
LAFAYETTE      SUNNY     57  53  86 CALM      30.05F
KOKOMO*        SUNNY     61  52  72 CALM      30.05F
MUNCIE*        SUNNY     59  50  72 NW3       30.06F
INDIANAPOLIS   MOSUNNY   59  50  72 CALM      30.05F

$$
MIZ043>046-050>051-056>058-064>065-071>073-077>080-171600-
SOUTHWEST LOWER MICHIGAN

CITY           SKY/WX    TMP DP  RH WIND       PRES   REMARKS
BATTLE CREEK   SUNNY     58  46  64 SW6       30.05F
BENTON HARBOR  SUNNY     58  48  69 S6        30.04F
COLDWATER*     SUNNY     60  47  63 W5        30.05F
HILLSDALE*     SUNNY     58  44  60 CALM      30.05F
HOLLAND        CLOUDY    61  49  64 S8        30.04F
GRAND RAPIDS   MOSUNNY   61  50  67 SW5       30.04F
KALAMAZOO      SUNNY     59  46  62 S6        30.05F
STURGIS*       SUNNY     57  46  67 CALM      30.04F
THREE RIVERS*  FAIR      58  49  72 S3        30.05F

$$
OHZ001>008-015>018-024>025-171600-
NORTHWEST OHIO

CITY           SKY/WX    TMP DP  RH WIND       PRES   REMARKS
WAUSEON*       FAIR      59  48  67 W6        30.06F
DEFIANCE       SUNNY     60  47  61 S5        30.06F
FINDLAY        SUNNY     62  49  62 CALM      30.06F
TOLEDO EXPRESS SUNNY     58  46  64 W5        30.06F
TOLEDO METCALF SUNNY     58  45  62 SW7       30.07F
LIMA           MOSUNNY   59  50  72 CALM      30.06F

$$
&&



USA.gov is the U.S. government's official web portal to all federal, state and local government web resources and services.